User: anonymous   Login
Location: Strohbehn Observatory
(42.4649°N, 93.8239°W)
Time: 11:04:21
(UTC-05:00)
Language:

SL-16 R/B - Orbit

View from above orbital plane
View from above orbital plane
View from above satellite
View from above satellite

Ground track
Ground track

The orbit data is extracted from the following two-line orbital elements,

1 31793U 07029B   16151.88689635 -.00000258  00000-0 -10962-3 0  9996
2 31793  70.9743 112.1746 0002400 278.0858 112.2863 14.14358106460669
Epoch (UTC): 30 May 2016 21:17:07
Eccentricity: 0.0002400
inclination: 70.9743°
perigee height: 843 km
apogee height: 846 km
right ascension of ascending node: 112.1746°
argument of perigee: 278.0858°
revolutions per day: 14.14358106
mean anomaly at epoch: 112.2863°
orbit number at epoch: 46066

The dashed part of the orbit path shows where the satellite is in the earth's shadow,  

DLR